Location: Mactaquac Provincial Park
(45.9573°N, 66.8897°W)
Time: 17:25:49
(UTC-03:00)

Cosmos 1867 - Visible Passes

Search period start: 20 August 2014 00:00
Search period end: 30 August 2014 00:00
Orbit: 777 x 799 km, 65.0° (Epoch: 20 August)

Date Brightness Start Highest point End Pass type
(mag) Time Alt. Az. Time Alt. Az. Time Alt. Az.
20 Aug 6.8 00:27:59 10° NNW 00:29:41 11° NNW 00:31:22 10° N visible
20 Aug 6.8 02:14:07 10° N 02:15:54 12° NNE 02:17:42 10° NNE visible
20 Aug 5.6 03:56:42 10° NNW 04:01:25 28° NE 04:06:05 10° E visible
20 Aug 3.6 05:40:02 10° NW 05:45:26 64° WSW 05:50:47 10° SSE visible
20 Aug 5.4 22:07:27 10° WSW 22:12:22 34° NW 22:17:19 10° NNE visible
20 Aug 6.7 23:55:24 10° NW 23:57:41 13° NNW 23:59:59 10° N visible
21 Aug 6.8 01:42:45 10° N 01:43:54 11° N 01:45:03 10° NNE visible
21 Aug 5.9 03:25:14 10° NNW 03:29:36 24° NE 03:33:56 10° E visible
21 Aug 3.5 05:08:23 10° NW 05:13:52 84° SW 05:19:18 10° SSE visible
21 Aug 5.0 21:35:29 10° WSW 21:40:38 42° NW 21:45:49 10° NNE visible
21 Aug 6.6 23:22:54 10° NW 23:25:44 14° NNW 23:28:34 10° N visible
22 Aug 6.9 01:11:35 10° N 01:11:53 10° N 01:12:11 10° N visible
22 Aug 6.1 02:53:47 10° NNW 02:57:45 20° NNE 03:01:42 10° ENE visible
22 Aug 3.7 04:36:48 10° NNW 04:42:16 76° NE 04:47:42 10° SE visible
22 Aug 4.6 21:03:38 10° SW 21:08:56 53° NW 21:14:18 10° NNE visible
22 Aug 6.5 22:50:28 10° WNW 22:53:48 16° NNW 22:57:09 10° NNE visible
23 Aug 6.3 02:22:21 10° NNW 02:25:52 17° NNE 02:29:23 10° ENE visible
23 Aug 4.1 04:05:14 10° NNW 04:10:38 58° NE 04:15:59 10° SE visible
23 Aug 4.5 05:49:29 10° WNW 05:53:52 25° WSW 05:58:13 10° SSW visible
23 Aug 6.3 22:18:07 10° WNW 22:21:54 19° NNW 22:25:42 10° NNE visible
24 Aug 6.4 01:50:55 10° N 01:53:57 15° NNE 01:56:59 10° ENE visible
24 Aug 4.6 03:33:42 10° NNW 03:38:58 46° NE 03:44:10 10° ESE visible
24 Aug 4.2 05:17:35 10° NW 05:22:26 34° WSW 05:27:14 10° S visible
24 Aug 6.1 21:45:51 10° W 21:50:02 22° NNW 21:54:15 10° NNE visible
24 Aug 6.7 23:34:57 10° NNW 23:35:49 10° N 23:36:41 10° N visible
25 Aug 6.5 01:19:30 10° N 01:22:00 13° NNE 01:24:30 10° NE visible
25 Aug 5.0 03:02:12 10° NNW 03:07:14 36° NE 03:12:14 10° ESE visible
25 Aug 3.8 04:45:47 10° NW 04:50:57 45° WSW 04:56:05 10° S visible
25 Aug 5.9 21:13:40 10° W 21:18:13 26° NW 21:22:48 10° NNE visible
25 Aug 6.6 23:02:15 10° NNW 23:03:48 11° NNW 23:05:21 10° N visible
26 Aug 6.5 00:48:06 10° N 00:50:02 12° NNE 00:51:57 10° NE visible
26 Aug 5.3 02:30:42 10° NNW 02:35:29 30° NE 02:40:13 10° E visible
26 Aug 3.5 04:14:04 10° NW 04:19:27 60° WSW 04:22:03 30° S visible
26 Aug 5.6 20:41:35 10° WSW 20:46:26 32° NW 20:51:19 10° NNE visible
26 Aug 6.5 22:29:40 10° NW 22:31:48 12° NNW 22:33:58 10° N visible
27 Aug 6.5 00:16:43 10° N 00:18:02 11° N 00:19:20 10° NNE visible
27 Aug 5.6 01:59:14 10° NNW 02:03:41 25° NE 02:07:21 13° E visible
27 Aug 3.4 03:42:25 10° NW 03:47:50 79° WSW 03:47:50 79° WSW visible
27 Aug 6.4 21:57:08 10° NW 21:59:50 14° NNW 22:02:33 10° N visible
27 Aug 6.6 23:45:27 10° N 23:46:01 10° N 23:46:34 10° NNE visible
28 Aug 5.8 01:27:47 10° NNW 01:31:51 21° NNE 01:34:45 14° ENE visible
28 Aug 3.9 03:10:49 10° NW 03:15:18 60° NNW 03:15:18 60° NNW visible
28 Aug 5.7 04:55:46 10° WNW 04:55:52 10° WNW 04:55:52 10° WNW visible
28 Aug 6.3 21:24:41 10° WNW 21:27:54 16° NNW 21:31:08 10° NNE visible
29 Aug 6.0 00:56:20 10° NNW 00:59:58 18° NNE 01:02:45 13° ENE visible
29 Aug 4.4 02:39:15 10° NNW 02:43:20 47° N 02:43:20 47° N visible
29 Aug 5.8 04:23:37 10° WNW 04:23:55 11° WNW 04:23:55 11° WNW visible
29 Aug 6.2 20:52:19 10° WNW 20:56:00 18° NNW 20:59:42 10° NNE visible
